Location: Hawaiian Village Mobile Home Park
(32.8359°N, 116.9792°W)
Time: 04:14:03
(UTC+00:00)

ADEOS - Pass Details

Date: 07 December 2021
Orbit: 792 x 795 km, 98.9° (Epoch: 23 January)

Event Time Altitude Azimuth Distance (km) Brightness Sun altitude
Rises 13:04:44 0° 16° (NNE) 3,299 6.8 -19.0°
Reaches altitude 10° 13:07:05 10° 18° (NNE) 2,365 6.1 -18.6°
Maximum altitude 13:12:17 70° 103° (ESE) 842 3.9 -17.5°
Drops below altitude 10° 13:17:27 10° 186° (S) 2,350 6.1 -16.5°
Sets 13:19:47 0° 189° (S) 3,275 6.9 -16.0°
